FALCON HEAVY DEB, 55266

Orbit data source: Space-Track

FALCON HEAVY DEB, 55266 is space debris in GEO originally from a launch on Sun, 15 Jan 2023 UTC launched from the Air Force Eastern Test Range (AFETR). Debris objects in space refer to the collection of defunct objects orbiting the Earth. Examples of debris include non-operational satellites, rocket bodies, and fragments generated from explosions, collisions, or faulty payload assembly.

Not visible in the next 10 days
Identifier
55266, 2023-008D
Orbit
GEO
Country
Flag of USUS
Related business
Manufacturer
SpaceX
Mission
Spacecraft
Bus & Motor
Unknown
Mass
Unknown
Launch date (UTC)
2023-01-15 (3 years ago)
Launch vehicle
Unknown
Launch site
Air Force Eastern Test Range (AFETR)
Object type
Payload
Rocket body
Debris
Shape & HBR
Unknown shape, 1.1 m
Radar Cross Section
RCS unknown

Expand to show TLE details & history
Last TLE update: 3 days ago

TLE from 3 days ago
0 FALCON HEAVY DEB
1 55266U 23008D   26170.45142354 -.00000007  00000-0  00000-0 0  9999
2 55266   3.1550  78.0630 0011189  67.5115 292.2521  1.02406845  8055
Epoch: 2026-06-19T10:50Z
TLE epoch observation values (Epoch: 2026-06-19T10:50:02.993Z)
Latitude
0.00002°
Longitude
7.5301°
Altitude
35,180.226 km
Speed
3.098 km/s
True Right ascension
05h 10m 53s
True Declination
0° 00' 00"
Sunlit
Object was in daylight at epoch
Visualization orbit readout
Latitude
Unknown
Longitude
Unknown
Altitude
Unknown
Speed
Unknown
Apparent Right ascension
Unknown
Apparent Declination
Unknown
Sunlit
N/A
Visualization observer readout
Local Sidereal Time
21:42:58
Azimuth
Unknown
Elevation
Unknown
Doppler factor
Unknown
Orbital elements
Apogee altitude
35,246.085 km
Perigee altitude
35,153.042 km
Semi-major axis
41,577.7 km
Eccentricity
0.00112
Inclination
3.155°
RAAN
78.063°
Arg. of periapsis
67.5115°
True anomaly
292.13337°
Mean anomaly
292.2521°
Eccentric anomaly
292.19274°
Mean motion
0.25601 °/min
Orbital period
1,406.21 mins
BSTAR
0
Loading maneuver chart data...
Computing Atmospheric mass density...
Loading historical data...
Loading historical data...
Loading historical data...
Loading historical data...
Loading historical data...
Loading historical data...
Loading historical data...
Other satellites on launch #8 in the year 2023 (2023-01-15 UTC)

Documentation

Showing up to 5 results
|